{"data":{"norad_id":62845,"epoch":"2026-05-24T23:23:25.725984Z","epoch_age_seconds":76449,"freshness":"FRESH","line1":"1 62845U 25019S   26144.97460331  .00016590  00000+0  61059-3 0  9996","line2":"2 62845  42.9994  10.7243 0001989 254.0939 105.9693 15.27603368 74005","mean_motion":15.27603368,"eccentricity":0.0001989,"inclination_deg":42.9994,"raan_deg":10.7243,"arg_perigee_deg":254.0939,"mean_anomaly_deg":105.9693,"bstar":0.00061059,"rev_number":7400,"period_min":94.26530669969,"perigee_km":481.61444873583,"apogee_km":484.34380073025,"semimajor_km":6861.116124733,"source":"CELESTRAK","updated_at":"2026-05-25T13:38:19.781525Z"}}